Location: Chagrin Falls Park
(41.4139°N, 81.3865°W)
Time: 10:54:34
(UTC+00:00)

STARLINK-2754 - Visible Passes

Search period start: 01 December 2021 00:00
Search period end: 11 December 2021 00:00
Orbit: 546 x 548 km, 53.1° (Epoch: 30 November)

Date Brightness Start Highest point End Pass type
(mag) Time Alt. Az. Time Alt. Az. Time Alt. Az.
01 Dec 5.1 23:20:13 10° W 23:23:48 28° NNW 23:25:59 18° NNE visible
02 Dec 5.3 23:14:12 10° WNW 23:17:38 24° NNW 23:19:57 16° NNE visible
03 Dec 5.4 23:08:14 10° WNW 23:11:28 22° NNW 23:13:55 14° NNE visible
04 Dec 5.5 23:02:17 10° WNW 23:05:20 20° NNW 23:07:51 12° NNE visible
05 Dec 6.5 00:43:19 10° NW 00:43:27 10° NNW 00:43:27 10° NNW visible
05 Dec 5.6 22:56:18 10° NW 22:59:12 18° N 23:01:48 11° NNE visible
06 Dec 6.4 00:37:04 10° NNW 00:37:23 11° NNW 00:37:23 11° NNW visible
06 Dec 5.6 22:50:19 10° NW 22:53:04 17° N 22:55:45 10° NNE visible
07 Dec 6.3 00:30:45 10° NNW 00:31:20 12° NNW 00:31:20 12° NNW visible
07 Dec 5.6 22:44:17 10° NW 22:46:57 16° N 22:49:37 10° NE visible
08 Dec 6.1 00:24:25 10° NW 00:25:19 14° NNW 00:25:19 14° NNW visible
08 Dec 5.6 22:38:13 10° NW 22:40:51 16° N 22:43:27 10° NE visible
09 Dec 5.9 00:18:04 10° NW 00:19:19 16° NNW 00:19:19 16° NNW visible
09 Dec 5.5 22:32:05 10° NW 22:34:44 16° N 22:37:21 10° NE visible
10 Dec 5.6 00:11:42 10° NW 00:13:23 20° NNW 00:13:23 20° NNW visible
10 Dec 5.5 22:25:54 10° NW 22:28:36 17° N 22:31:18 10° NE visible
